Flight Track Log - Related Links

Times and Time Zones

All times are in EDT time to prevent confusion due to time zone crossing. See the ASH3733 flight status page for this flight to view local times or setup timezone preferences in your user account.

Time Position Orientation Groundspeed Altitude Reporting Facility
EDT Latitude Longitude Course Direction KTS MPH feet Rate Location/Type
02:45PM 29.9789 -95.3560 151° Southeast 138 159 100  Level FlightAware ADS-B (KHOU)
02:45PM 29.9672 -95.3488 152° Southeast 167 192 300 1,548 Climbing FlightAware ADS-B (KHOU)
02:46PM 29.9570 -95.3424 144° Southeast 167 192 900 2,471 Climbing FlightAware ADS-B (KHOU)
02:46PM 29.9563 -95.3418 142° Southeast 168 193 1,000 3,600 Climbing FlightAware ADS-B
02:46PM 29.9542 -95.3396 132° Southeast 170 196 1,200 2,667 Climbing FlightAware ADS-B (KHOU)
02:46PM 29.9518 -95.3358 121° Southeast 174 200 1,400 2,000 Climbing FlightAware ADS-B (KHOU)
02:46PM 29.9514 -95.3349 117° Southeast 176 203 1,400 1,500 Level FlightAware ADS-B
02:46PM 29.9501 -95.3314 107° East 180 207 1,500 2,000 Climbing FlightAware ADS-B (KHOU)
02:46PM 29.9494 -95.3269 95° East 186 214 1,700 1,714 Climbing FlightAware ADS-B (KHOU)
02:46PM 29.9493 -95.3258 92° East 189 217 1,700 1,500 Level FlightAware ADS-B
02:46PM 29.9493 -95.3238 87° East 192 221 1,800 667 Climbing FlightAware ADS-B
02:46PM 29.9507 -95.3163 69° East 208 239 1,800 857 Level FlightAware ADS-B (KHOU)
02:46PM 29.9511 -95.3152 67° East 210 242 1,900 1,200 Climbing FlightAware ADS-B
02:46PM 29.9530 -95.3111 57° Northeast 219 252 1,900  Level FlightAware ADS-B (KHOU)
02:46PM 29.9563 -95.3065 46° Northeast 229 264 1,900 667 Level FlightAware ADS-B (KHOU)
02:46PM 29.9605 -95.3026 34° Northeast 237 273 2,000  Climbing FlightAware ADS-B
02:46PM 29.9592 -95.3036 37° Northeast 236 272 1,900 1,000 Descending FlightAware ADS-B
02:47PM 29.9653 -95.2997 23° Northeast 242 278 2,100 2,000 Climbing FlightAware ADS-B (KHOU)
02:47PM 29.9681 -95.2986 19° North 242 278 2,100 2,667 Level FlightAware ADS-B
02:47PM 29.9765 -95.2972 North 243 280 2,500 2,800 Climbing FlightAware ADS-B
02:47PM 29.9853 -95.2972 359° North 242 278 2,800 2,500 Climbing FlightAware ADS-B
02:47PM 29.9893 -95.2973 North 242 278 3,000 2,571 Climbing FlightAware ADS-B
02:47PM 29.9916 -95.2975 358° North 243 280 3,100 2,400 Climbing FlightAware ADS-B
02:47PM 29.9911 -95.2975 358° North 242 278 3,200 1,714 Climbing FlightAware ADS-B
02:47PM 30.0008 -95.2981 357° North 252 290 3,300 1,091 Climbing FlightAware ADS-B
02:47PM 30.0075 -95.2986 356° North 262 302 3,400 800 Climbing FlightAware ADS-B
02:47PM 30.0198 -95.2997 356° North 271 312 3,500 1,200 Climbing FlightAware ADS-B
02:47PM 30.0279 -95.3004 356° North 272 313 3,700 2,000 Climbing FlightAware ADS-B
02:48PM 30.0390 -95.3014 356° North 287 330 4,000 2,000 Climbing FlightAware ADS-B
02:48PM 30.0503 -95.3024 356° North 289 333 4,300 2,400 Climbing FlightAware ADS-B (KHOU)
02:48PM 30.0575 -95.3029 357° North 289 333 4,600 3,000 Climbing FlightAware ADS-B
02:48PM 30.0697 -95.3039 357° North 289 333 5,000 3,000 Climbing FlightAware ADS-B
02:48PM 30.0771 -95.3043 359° North 290 334 5,300 2,727 Climbing FlightAware ADS-B (KHOU)
02:48PM 30.0840 -95.3044 North 290 334 5,500 3,000 Climbing FlightAware ADS-B (KHOU)
02:48PM 30.0863 -95.3045 North 291 335 5,600 2,769 Climbing FlightAware ADS-B
02:48PM 30.1026 -95.3043 North 293 337 6,100 2,400 Climbing FlightAware ADS-B
02:48PM 30.1135 -95.3042 North 296 341 6,400 2,625 Climbing FlightAware ADS-B
02:49PM 30.1247 -95.3040 North 296 341 6,800 2,800 Climbing FlightAware ADS-B
02:49PM 30.1327 -95.3039 North 296 341 7,100 2,800 Climbing FlightAware ADS-B
02:49PM 30.1457 -95.3036 North 298 343 7,500 2,500 Climbing FlightAware ADS-B (KHOU)
02:49PM 30.1490 -95.3036 North 297 342 7,600 2,000 Climbing FlightAware ADS-B
02:49PM 30.1654 -95.3034 North 301 346 8,000 2,640 Climbing FlightAware ADS-B
02:49PM 30.1847 -95.3031 North 302 348 8,700 2,571 Climbing FlightAware ADS-B
02:49PM 30.1920 -95.3030 North 303 349 8,900 2,250 Climbing FlightAware ADS-B
02:50PM 30.2076 -95.3028 North 306 352 9,300 2,640 Climbing FlightAware ADS-B
02:50PM 30.2292 -95.3024 North 308 354 10,000 2,455 Climbing FlightAware ADS-B (KHOU)
02:50PM 30.2361 -95.3020 North 307 353 10,200 1,448 Climbing FlightAware ADS-B
02:50PM 30.2740 -95.2985 North 333 383 10,700 -14,769 Climbing FlightAware ADS-B (KHOU)
02:50PM 30.2702 -95.2991 North 330 380 3,800 1,200 Descending FlightAware ADS-B
02:51PM 30.2893 -95.2944 17° North 338 389 10,900 36,000 Climbing FlightAware ADS-B (KHOU)
02:51PM 30.2915 -95.2935 18° North 339 390 11,000 2,250 Climbing FlightAware ADS-B
02:51PM 30.3009 -95.2892 21° North 340 391 11,200 2,250 Climbing FlightAware ADS-B
02:51PM 30.3179 -95.2787 31° Northeast 343 395 11,600 2,069 Climbing FlightAware ADS-B (KHOU)
02:51PM 30.3398 -95.2623 18° North 339 390 12,200 2,100 Climbing FlightAware ADS-B
02:51PM 30.3440 -95.2592 33° Northeast 346 398 12,300 1,636 Climbing FlightAware ADS-B (KHOU)
02:51PM 30.3533 -95.2522 32° Northeast 347 399 12,500 2,000 Climbing FlightAware ADS-B
02:52PM 30.3852 -95.2284 32° Northeast 349 402 13,300 1,935 Climbing FlightAware ADS-B (KHOU)
02:52PM 30.4412 -95.1906 30° Northeast 358 412 14,500 1,765 Climbing FlightAware ADS-B (KHOU)
02:53PM 30.4571 -95.1799 30° Northeast 361 415 14,800 1,742 Climbing FlightAware ADS-B
02:53PM 30.4857 -95.1606 30° Northeast 365 420 15,400 1,750 Climbing FlightAware ADS-B (KHOU)
02:53PM 30.5286 -95.1314 30° Northeast 369 425 16,200 1,600 Climbing FlightAware ADS-B (KHOU)
02:54PM 30.5731 -95.1013 30° Northeast 376 433 17,000 1,672 Climbing FlightAware ADS-B (KHOU)
02:54PM 30.6201 -95.0696 30° Northeast 378 435 17,900 1,729 Climbing FlightAware ADS-B (KHOU)
02:55PM 30.6639 -95.0399 30° Northeast 380 437 18,700 1,525 Climbing FlightAware ADS-B (KHOU)
02:55PM 30.7110 -95.0081 30° Northeast 384 442 19,400 1,279 Climbing FlightAware ADS-B (KHOU)
02:56PM 30.7568 -94.9759 32° Northeast 391 450 20,000 1,300 Climbing FlightAware ADS-B (KHOU)
02:56PM 30.8036 -94.9445 29° Northeast 392 451 20,700 1,322 Climbing FlightAware ADS-B (KHOU)
02:57PM 30.8514 -94.9127 30° Northeast 397 457 21,300 1,200 Climbing FlightAware ADS-B (KHOU)
02:57PM 30.8990 -94.8806 30° Northeast 400 460 21,900 1,279 Climbing FlightAware ADS-B (KHOU)
02:58PM 30.9484 -94.8472 30° Northeast 402 463 22,600 1,100 Climbing FlightAware ADS-B (KHOU)
02:58PM 30.9959 -94.8147 30° Northeast 406 467 23,000 500 Climbing FlightAware ADS-B (KHOU)
02:59PM 31.0439 -94.7819 30° Northeast 406 467 23,100 590 Climbing FlightAware ADS-B (KHOU)
02:59PM 31.0928 -94.7485 30° Northeast 409 471 23,600 1,100 Climbing FlightAware ADS-B (KHOU)
03:00PM 31.1429 -94.7144 30° Northeast 411 473 24,200 1,017 Climbing FlightAware ADS-B (KHOU)
03:00PM 31.1918 -94.6808 30° Northeast 416 479 24,600 1,000 Climbing FlightAware ADS-B (KHOU)
03:01PM 31.2407 -94.6474 30° Northeast 419 482 25,200 1,000 Climbing FlightAware ADS-B (KHOU)
03:01PM 31.2923 -94.6119 30° Northeast 425 489 25,600 814 Climbing FlightAware ADS-B (KHOU)
03:02PM 31.3436 -94.5766 30° Northeast 429 494 26,000 1,082 Climbing FlightAware ADS-B (KHOU)
03:02PM 31.3950 -94.5411 30° Northeast 426 490 26,700 1,300 Climbing FlightAware ADS-B (KHOU)
03:03PM 31.4449 -94.5069 30° Northeast 429 494 27,300 1,100 Climbing FlightAware ADS-B (KHOU)
03:03PM 31.4965 -94.4712 30° Northeast 433 498 27,800 1,082 Climbing FlightAware ADS-B (KHOU)
03:04PM 31.5506 -94.4339 30° Northeast 435 501 28,400 1,119 Climbing FlightAware ADS-B (KHOU)
03:04PM 31.5951 -94.4033 30° Northeast 435 501 28,900 1,100 Climbing FlightAware ADS-B (KHOU)
03:05PM 31.6544 -94.3622 30° Northeast 436 502 29,500 1,000 Climbing FlightAware ADS-B (KHOU)
03:05PM 31.7061 -94.3262 30° Northeast 441 507 29,900 915 Climbing FlightAware ADS-B (KHOU)
03:06PM 31.7563 -94.2914 30° Northeast 444 511 30,400 900 Climbing FlightAware ADS-B (KHOU)
03:06PM 31.8132 -94.2518 30° Northeast 448 516 30,800 882 Climbing FlightAware ADS-B (KHOU)
03:07PM 31.8807 -94.2047 30° Northeast 451 519 31,400 1,059 Climbing FlightAware ADS-B
03:07PM 31.9352 -94.1667 30° Northeast 449 517 32,000 1,180 Climbing FlightAware ADS-B
03:08PM 31.9897 -94.1285 30° Northeast 446 513 32,600 1,065 Climbing FlightAware ADS-B
03:09PM 32.0454 -94.0898 30° Northeast 446 513 33,100 1,000 Climbing FlightAware ADS-B (KHOU)
03:09PM 32.0601 -94.0796 30° Northeast 445 512 33,700 1,120 Climbing FlightAware ADS-B (KHOU)
03:10PM 32.1785 -93.9964 31° Northeast 440 506 34,500 930 Climbing FlightAware ADS-B (KHOU)
03:10PM 32.2325 -93.9583 31° Northeast 443 510 34,800 429 Climbing FlightAware ADS-B
03:11PM 32.2996 -93.9111 31° Northeast 451 519 35,000 245 Climbing FlightAware ADS-B
03:11PM 32.3180 -93.8982 30° Northeast 453 521 35,000  Level FlightAware ADS-B (KHOU)
03:12PM 32.3633 -93.8663 30° Northeast 457 526 35,000  Level FlightAware ADS-B (KHOU)
03:12PM 32.4050 -93.8367 31° Northeast 455 524 35,000  Level FlightAware ADS-B (KHOU)
03:12PM 32.4484 -93.8061 31° Northeast 453 521 35,000  Level FlightAware ADS-B
03:13PM 32.5187 -93.7564 31° Northeast 453 521 35,000  Level FlightAware ADS-B
03:14PM 32.5906 -93.7054 30° Northeast 454 522 35,000  Level FlightAware ADS-B (KHOU)
03:14PM 32.6438 -93.6675 31° Northeast 457 526 35,000  Level FlightAware ADS-B (KHOU)
03:14PM 32.6634 -93.6536 31° Northeast 458 527 35,000  Level FlightAware ADS-B
03:14PM 32.6561 -93.6587 31° Northeast 456 525 35,000  Level FlightAware ADS-B (KHOU)
03:15PM 32.7358 -93.6019 31° Northeast 457 526 35,000  Level FlightAware ADS-B
03:15PM 32.7520 -93.5905 31° Northeast 459 528 35,000  Level FlightAware ADS-B (KHOU)
03:15PM 32.7610 -93.5840 31° Northeast 459 528 35,000  Level FlightAware ADS-B (KHOU)
03:16PM 32.8049 -93.5525 31° Northeast 461 531 35,000  Level FlightAware ADS-B
03:16PM 32.8799 -93.4984 34° Northeast 461 531 35,000  Level FlightAware ADS-B
03:17PM 32.9465 -93.4367 41° Northeast 464 534 35,000  Level FlightAware ADS-B (KHOU)
03:17PM 32.9969 -93.3843 40° Northeast 463 533 35,000  Level FlightAware ADS-B (KHOU)
03:18PM 33.0141 -93.3665 41° Northeast 464 534 35,000  Level FlightAware ADS-B
03:18PM 33.0118 -93.3689 40° Northeast 463 533 35,000  Level FlightAware ADS-B (KHOU)
03:19PM 33.1490 -93.2253 41° Northeast 467 537 35,000  Level FlightAware ADS-B (KHOU)
03:20PM 33.2092 -93.1622 41° Northeast 467 537 35,000  Level Fort Worth Center
03:21PM 33.3067 -93.0592 41° Northeast 471 542 35,000 242 Level Fort Worth Center
03:22PM 33.4047 -92.9556 41° Northeast 470 541 35,500 677 Climbing Fort Worth Center
03:23PM 33.5022 -92.8519 42° Northeast 473 544 36,400 720 Climbing Fort Worth Center
03:24PM 33.5989 -92.7486 42° Northeast 467 537 37,000 288 Climbing Fort Worth Center
03:25PM 33.7147 -92.6247 42° Northeast 468 539 37,000  Level Fort Worth Center
03:26PM 33.8119 -92.5206 42° Northeast 468 539 37,000  Level Fort Worth Center
03:27PM 33.9086 -92.4164 42° Northeast 466 536 37,000  Level Fort Worth Center
03:28PM 34.0047 -92.3122 42° Northeast 463 533 37,000  Level Fort Worth Center
03:29PM 34.1011 -92.2083 42° Northeast 456 525 37,000  Level Fort Worth Center
03:30PM 34.1958 -92.1053 42° Northeast 457 526 37,000  Level Fort Worth Center
03:31PM 34.3058 -91.9853 42° Northeast 462 532 37,000  Level Fort Worth Center
03:32PM 34.4008 -91.8814 42° Northeast 462 532 37,000  Level Fort Worth Center
03:33PM 34.4947 -91.7781 42° Northeast 457 526 37,000  Level Fort Worth Center
03:36PM 34.7333 -91.5147 42° Northeast 451 519 37,000  Level Memphis Center
03:37PM 34.8306 -91.4075 42° Northeast 458 527 37,000  Level Memphis Center
03:38PM 34.9392 -91.2858 43° Northeast 454 522 37,000  Level Memphis Center
03:39PM 35.0314 -91.1831 42° Northeast 450 518 37,000  Level Memphis Center
03:40PM 35.1236 -91.0797 42° Northeast 447 514 37,000  Level Memphis Center
03:41PM 35.2153 -90.9764 43° Northeast 445 512 37,000  Level Memphis Center
03:42PM 35.3072 -90.8728 43° Northeast 449 517 37,000  Level Memphis Center
03:43PM 35.4025 -90.7644 43° Northeast 450 518 37,000  Level Memphis Center
03:44PM 35.5106 -90.6417 43° Northeast 455 524 37,000  Level Memphis Center
03:45PM 35.6031 -90.5364 43° Northeast 449 517 37,000  Level Memphis Center
03:46PM 35.6972 -90.4286 43° Northeast 454 522 37,000  Level Memphis Center
03:47PM 35.7897 -90.3219 43° Northeast 457 526 37,000  Level Memphis Center
03:48PM 35.8831 -90.2147 43° Northeast 459 528 37,000  Level Memphis Center
03:49PM 35.9756 -90.1078 43° Northeast 459 528 37,000  Level Memphis Center
03:50PM 36.0686 -89.9997 43° Northeast 458 527 37,000  Level Memphis Center
03:51PM 36.1808 -89.8694 43° Northeast 460 529 37,000  Level Memphis Center
03:52PM 36.2756 -89.7592 43° Northeast 473 544 37,000  Level Memphis Center
03:53PM 36.3722 -89.6456 43° Northeast 464 534 37,000  Level Memphis Center
03:54PM 36.4653 -89.5358 43° Northeast 467 537 37,000  Level Memphis Center
03:55PM 36.5625 -89.4208 44° Northeast 475 547 37,000  Level Memphis Center
03:56PM 36.6589 -89.3067 44° Northeast 473 544 37,000  Level Memphis Center
03:57PM 36.7539 -89.1936 44° Northeast 466 536 37,000  Level Memphis Center
03:58PM 36.8489 -89.0806 44° Northeast 471 542 37,000  Level Memphis Center
04:00PM 36.9628 -88.9436 44° Northeast 474 545 37,000  Level Memphis Center
04:01PM 37.0583 -88.8286 44° Northeast 473 544 37,000  Level Memphis Center
04:02PM 37.1533 -88.7136 44° Northeast 472 543 37,000  Level Memphis Center
04:03PM 37.2481 -88.5986 44° Northeast 476 548 37,000  Level Memphis Center
04:04PM 37.3422 -88.4847 44° Northeast 471 542 37,000  Level Memphis Center
04:05PM 37.4392 -88.3664 44° Northeast 472 543 37,000  Level Memphis Center
04:06PM 37.5500 -88.2297 44° Northeast 474 545 37,000  Level Memphis Center
04:07PM 37.6453 -88.1125 44° Northeast 476 548 37,000  Level Memphis Center
04:08PM 37.7400 -87.9958 44° Northeast 477 549 37,000  Level Memphis Center
04:09PM 37.8308 -87.8831 44° Northeast 477 549 37,000  Level Memphis Center
04:10PM 37.9397 -87.7414 46° Northeast 473 544 37,000  Level Memphis Center
04:11PM 38.0550 -87.5633 51° Northeast 474 545 37,000  Level Indianapolis Center
04:12PM 38.1375 -87.4339 51° Northeast 483 556 37,000  Level Indianapolis Center
04:13PM 38.2219 -87.3006 51° Northeast 485 558 37,000  Level Indianapolis Center
04:14PM 38.3256 -87.1364 51° Northeast 484 557 37,000  Level Indianapolis Center
04:17PM 38.4825 -86.8867 51° Northeast 481 554 37,000  Level Indianapolis Center
04:20PM 38.7636 -86.4327 52° Northeast 483 556 37,000  Level FlightAware ADS-B
04:22PM 38.8856 -86.2121 51° Northeast  Level FlightAware Approximate
04:22PM 38.9787 -86.0816 52° Northeast 478 550 37,000  Level FlightAware ADS-B
04:23PM 39.0277 -86.0007 52° Northeast 474 545 37,000  Level FlightAware ADS-B (KCVG)
04:24PM 39.0197 -86.0141 64° Northeast 476 548 37,000 157 Level FlightAware ADS-B
04:25PM 39.1308 -85.7458 64° Northeast 480 552 37,300 403 Climbing Indianapolis Center
04:26PM 39.1444 -85.5764 84° East 480 552 37,800 336 Climbing Indianapolis Center
04:27PM 39.1781 -85.3753 78° East 488 562 38,000 96 Climbing Indianapolis Center
04:28PM 39.2633 -85.2450 50° Northeast 477 549 38,000  Level Indianapolis Center
04:29PM 39.3519 -85.1200 47° Northeast 473 544 38,000  Level Indianapolis Center
04:30PM 39.4439 -84.9906 47° Northeast 479 551 38,000  Level Indianapolis Center
04:31PM 39.5375 -84.8583 47° Northeast 476 548 38,000  Level Indianapolis Center
04:32PM 39.6267 -84.7317 48° Northeast 476 548 38,000  Level Indianapolis Center
04:33PM 39.7158 -84.6042 48° Northeast 477 549 38,000  Level Indianapolis Center
04:34PM 39.8056 -84.4758 48° Northeast 475 547 38,000  Level Indianapolis Center
04:35PM 39.9136 -84.3208 48° Northeast 481 554 38,000  Level Indianapolis Center
04:36PM 40.0022 -84.1919 48° Northeast 470 541 38,000  Level Indianapolis Center
04:37PM 40.0906 -84.0642 48° Northeast 474 545 38,000  Level Indianapolis Center
04:38PM 40.1797 -83.9339 48° Northeast 479 551 38,000  Level Indianapolis Center
04:40PM 40.3378 -83.7022 48° Northeast 467 537 38,000 -36 Level Cleveland Center
04:41PM 40.4242 -83.5744 48° Northeast 467 537 37,900 -484 Descending Cleveland Center
04:42PM 40.5103 -83.4469 48° Northeast 465 535 37,000 -435 Descending Cleveland Center
04:43PM 40.5958 -83.3197 48° Northeast 461 531 37,000  Level Cleveland Center
04:44PM 40.6794 -83.1950 49° Northeast 446 513 37,000  Level Cleveland Center
04:45PM 40.7619 -83.0706 49° Northeast 449 517 37,000  Level Cleveland Center
04:46PM 40.8606 -82.9222 49° Northeast 445 512 37,000  Level Cleveland Center
04:47PM 40.9411 -82.8003 49° Northeast 445 512 37,000  Level Cleveland Center
04:48PM 41.0222 -82.6772 49° Northeast 447 514 37,000  Level Cleveland Center
04:49PM 41.1019 -82.5553 49° Northeast 444 511 37,000  Level Cleveland Center
04:50PM 41.1864 -82.4256 49° Northeast 441 507 37,000 -432 Level Cleveland Center
04:51PM 41.2675 -82.3011 49° Northeast 447 514 36,100 -1,935 Descending Cleveland Center
04:52PM 41.3711 -82.1589 46° Northeast 448 516 33,000 -1,500 Descending Cleveland Center
04:53PM 41.4842 -82.0875 25° Northeast 443 510 33,000  Level Cleveland Center
04:55PM 41.5958 -82.0214 24° Northeast 445 512 33,000  Level Cleveland Center
04:56PM 41.7089 -81.9542 24° Northeast 446 513 33,000 -635 Level Cleveland Center
05:01PM 42.3246 -81.5852 24° Northeast 458 527 29,000 -694 Descending FlightAware ADS-B (CYYZ)
05:01PM 42.3837 -81.5493 24° Northeast 457 526 29,000  Level FlightAware ADS-B (CYYZ)
05:02PM 42.4707 -81.4965 24° Northeast 456 525 29,000  Level FlightAware ADS-B (CYYZ)
05:03PM 42.5270 -81.4622 24° Northeast 457 526 29,000 -474 Level FlightAware ADS-B (CYYZ)
05:03PM 42.6156 -81.4081 24° Northeast 449 517 28,400 -1,263 Descending FlightAware ADS-B (CYYZ)
05:04PM 42.6736 -81.3727 24° Northeast 446 513 27,400 -2,000 Descending FlightAware ADS-B (CYYZ)
05:04PM 42.7285 -81.3389 24° Northeast 443 510 26,400 -1,974 Descending FlightAware ADS-B (CYYZ)
05:05PM 42.8146 -81.2860 24° Northeast 434 499 24,900 -1,579 Descending FlightAware ADS-B (CYYZ)
05:06PM 42.8686 -81.2522 24° Northeast 433 498 24,400 -947 Descending FlightAware ADS-B (CYYZ)
05:06PM 42.8656 -81.2541 25° Northeast 434 499 24,300 -800 Descending FlightAware ADS-B (KFYG)
05:06PM 42.9234 -81.2172 25° Northeast 432 497 24,000 -340 Descending FlightAware ADS-B (CYYZ)
05:07PM 42.9774 -81.1823 25° Northeast 434 499 24,000  Level FlightAware ADS-B (CYYZ)
05:07PM 43.0259 -81.1512 25° Northeast 434 499 24,000  Level FlightAware ADS-B (KFYG)
05:07PM 43.0344 -81.1457 25° Northeast 433 498 24,000  Level FlightAware ADS-B (CYYZ)
05:08PM 43.0903 -81.1102 24° Northeast 432 497 24,000 -98 Level FlightAware ADS-B (CYYZ)
05:08PM 43.1444 -81.0762 24° Northeast 432 497 23,900 -638 Descending FlightAware ADS-B (CYYZ)
05:08PM 43.1744 -81.0571 25° Northeast 431 496 23,500 -1,600 Descending FlightAware ADS-B (KFYG)
05:09PM 43.2257 -81.0210 37° Northeast 431 496 22,700 -1,579 Descending FlightAware ADS-B (CYYZ)
05:09PM 43.2387 -81.0044 49° Northeast 434 499 22,500 -1,742 Descending FlightAware ADS-B (CYYZ)
05:09PM 43.2628 -80.9556 62° Northeast 432 497 21,800 -2,250 Descending FlightAware ADS-B (CYYZ)
05:10PM 43.2775 -80.9108 67° East 430 495 21,000 -2,533 Descending FlightAware ADS-B (KFYG)
05:10PM 43.2999 -80.8435 65° Northeast 424 488 19,900 -2,632 Descending FlightAware ADS-B (CYYZ)
05:11PM 43.3248 -80.7713 64° Northeast 413 475 18,500 -3,346 Descending FlightAware ADS-B (CYYZ)
05:11PM 43.2838 -80.8914 65° Northeast 422 486 17,000 -4,000 Descending FlightAware ADS-B (CYKF)
05:11PM 43.3499 -80.6993 64° Northeast 420 483 16,500 -3,077 Descending FlightAware ADS-B (CYYZ)
05:12PM 43.3750 -80.6269 64° Northeast 412 474 15,000 -3,000 Descending FlightAware ADS-B (CYYZ)
05:12PM 43.4117 -80.5217 64° Northeast 401 461 12,700 -2,960 Descending FlightAware ADS-B (CYYZ)
05:13PM 43.4355 -80.4524 64° Northeast 391 450 11,300 -1,932 Descending FlightAware ADS-B (CYYZ)
05:13PM 43.4564 -80.3911 68° East 363 418 10,800 -1,000 Descending FlightAware ADS-B (KFYG)
05:13PM 43.4571 -80.3890 68° East 360 414 10,800 -750 Level FlightAware ADS-B (CYYZ)
05:14PM 43.4712 -80.3246 77° East 324 373 10,400 -706 Descending FlightAware ADS-B (CYYZ)
05:14PM 43.4721 -80.3186 79° East 320 368 10,400 -800 Level FlightAware ADS-B (CYKF)
05:14PM 43.4800 -80.2650 78° East 313 360 10,000 -1,317 Descending FlightAware ADS-B (CYYZ)
05:15PM 43.4843 -80.2365 78° East 313 360 9,500 -2,000 Descending FlightAware ADS-B (CYYZ)
05:15PM 43.4852 -80.2308 78° East 314 361 9,400 -1,909 Descending FlightAware ADS-B (KFYG)
05:15PM 43.4901 -80.1976 82° East 312 359 8,800 -1,778 Descending FlightAware ADS-B (KFYG)
05:15PM 43.4917 -80.1783 87° East 311 358 8,600 -2,250 Descending FlightAware ADS-B (CYYZ)
05:15PM 43.4918 -80.1670 94° East 310 357 8,200 -1,600 Descending FlightAware ADS-B (KFYG)
05:16PM 43.4874 -80.1182 99° East 300 345 7,800 -1,231 Descending FlightAware ADS-B (CYYZ)
05:16PM 43.4917 -80.1783 99° East 295 339 7,400 -1,600 Descending FlightAware ADS-B (CYKF)
05:16PM 43.4810 -80.0629 97° East 293 337 7,000 -1,579 Descending FlightAware ADS-B (CYYZ)
05:16PM 43.4805 -80.0541 91° East 293 337 6,900 -1,333 Descending FlightAware ADS-B (CYYZ)
05:16PM 43.4809 -80.0454 84° East 293 337 6,800 -1,385 Descending FlightAware ADS-B (CYYZ)
05:16PM 43.4825 -80.0306 83° East 293 337 6,600 -1,636 Descending FlightAware ADS-B
05:17PM 43.4858 -80.0060 78° East 290 334 6,200 -1,429 Descending FlightAware ADS-B (CYYZ)
05:17PM 43.4877 -79.9932 80° East 293 337 6,100 -400 Descending FlightAware ADS-B
05:17PM 43.4896 -79.9802 78° East 277 319 6,100 -333 Level FlightAware ADS-B (CYYZ)
05:17PM 43.4908 -79.9727 78° East 265 305 6,000 -400 Descending FlightAware ADS-B (CYHM)
05:17PM 43.4972 -79.9301 78° East 252 290 5,900 -444 Descending FlightAware ADS-B (CYYZ)
05:18PM 43.4989 -79.9185 78° East 249 287 5,800 -1,500 Descending FlightAware ADS-B (KFYG)
05:18PM 43.5022 -79.8972 78° East 244 281 5,300 -1,364 Descending FlightAware ADS-B (KFYG)
05:18PM 43.5042 -79.8835 78° East 243 280 5,300 -1,143 Level FlightAware ADS-B (CYYZ)
05:18PM 43.5072 -79.8633 78° East 241 277 4,900 -1,355 Descending FlightAware ADS-B (CYHM)
05:18PM 43.5133 -79.8389 58° Northeast 240 276 4,600 -857 Descending FlightAware ADS-B (CYYZ)
05:19PM 43.5163 -79.8331 52° Northeast 241 277 4,600 -1,000 Level FlightAware ADS-B (CYYZ)
05:19PM 43.5147 -79.8361 51° Northeast 241 277 4,500 -1,412 Descending FlightAware ADS-B (KFYG)
05:19PM 43.5287 -79.8144 78° East 241 277 4,200 -1,200 Descending FlightAware ADS-B
05:19PM 43.5405 -79.7978 46° Northeast 235 270 3,900 -1,043 Descending FlightAware ADS-B
05:19PM 43.5470 -79.7887 46° Northeast 226 260 3,800 -947 Descending FlightAware ADS-B (CYYZ)
05:19PM 43.5539 -79.7788 46° Northeast 235 270 3,600 -1,200 Descending FlightAware ADS-B
05:20PM 43.5675 -79.7590 46° Northeast 198 228 3,200 -1,250 Descending FlightAware ADS-B (CYYZ)
05:20PM 43.5694 -79.7563 46° Northeast 235 270 3,100 -968 Descending FlightAware ADS-B
05:20PM 43.5850 -79.7337 46° Northeast 178 205 2,700 -800 Descending FlightAware ADS-B (CYYZ)
05:20PM 43.5870 -79.7308 46° Northeast 180 207 2,700 -800 Level FlightAware ADS-B (KFYG)
05:20PM 43.5937 -79.7212 46° Northeast 178 205 2,500 -1,143 Descending FlightAware ADS-B (CYYZ)
05:21PM 43.5984 -79.7143 46° Northeast 175 201 2,300 -857 Descending FlightAware ADS-B (KFYG)
05:21PM 43.6093 -79.6986 46° Northeast 170 196 2,100 -857 Descending FlightAware ADS-B (KFYG)
05:21PM 43.6103 -79.6972 46° Northeast 169 194 2,000 -1,200 Descending FlightAware ADS-B (CYYZ)
05:21PM 43.6199 -79.6832 47° Northeast 158 182 1,700 -800 Descending FlightAware ADS-B (KFYG)
05:21PM 43.6258 -79.6747 46° Northeast 145 167 1,600 -714 Descending FlightAware ADS-B (CYYZ)
05:22PM 43.6389 -79.6555 45° Northeast 132 152 1,200 -700 Descending FlightAware ADS-B (CYYZ)
05:22PM 43.6517 -79.6369 46° Northeast 133 153 900 -610 Descending FlightAware ADS-B (CYYZ)
05:23PM 43.6640 -79.6192 46° Northeast 135 155 600 -295 Descending FlightAware ADS-B (CYYZ)
05:24PM 43.6728 -79.6064 44° Northeast 53 61 600  Level FlightAware ADS-B (CYYZ)

Login

Don't have an account? Register now (free) for customized features, flight alerts, and more!